Aviation Digital Data Service (ADDS)

Output produced by METARs form (1855 UTC 19 September 2017)
found at http://www.aviationweather.gov/adds/metars/
 
OMAA 191800Z 01009KT 310V030 8000 NSC 33/27 Q1005 NOSIG
TAF OMAA 191700Z 1918/2100 36010KT 8000 NSC 
     BECMG 1919/1921 04006KT 4000 HZ 
     PROB30 
     TEMPO 2000/2003 1200 BCFG BKN005 
     BECMG 2004/2006 14008KT 7000 NSW 
     BECMG 2009/2011 32016KT 
     BECMG 2016/2018 05005KT
       
OMAA 191800Z 01009KT 310V030 8000 NSC 33/27 Q1005 NOSIG
TAF OMAA 191700Z 1918/2100 36010KT 8000 NSC 
     BECMG 1919/1921 04006KT 4000 HZ 
     PROB30 
     TEMPO 2000/2003 1200 BCFG BKN005 
     BECMG 2004/2006 14008KT 7000 NSW 
     BECMG 2009/2011 32016KT 
     BECMG 2016/2018 05005KT
       
OMAD 191800Z 02007KT 8000 NSC 33/27 Q1005 NOSIG
TAF OMAD 191700Z 1918/2100 36006KT 8000 NSC 
     BECMG 1919/1921 04005KT 4000 HZ 
     PROB40 
     TEMPO 2000/2003 1200 BCFG BKN005 
     BECMG 2004/2006 14005KT 7000 NSW 
     BECMG 2009/2011 32015KT 
     BECMG 2016/2018 05005KT
       
OMAL 191800Z 35008KT 8000 NSC 35/15 Q1007 NOSIG
TAF OMAL 191100Z 1912/2018 33010KT 8000 FEW050TCU 
     BECMG 1917/1919 04005KT NSC 
     BECMG 2003/2005 13010KT 
     BECMG 2010/2012 03008KT
       
OMDB 191800Z 34006KT 310V030 CAVOK 35/21 Q1006 NOSIG
TAF OMDB 191706Z 1918/2100 05007KT 8000 NSC 
     BECMG 2003/2005 14010KT 
     BECMG 2009/2011 35014KT 
     BECMG 2015/2017 07007KT
       
OMDW 191800Z 34006KT CAVOK 31/25 Q1007 NOSIG
TAF OMDW 191706Z 1918/2100 36010KT 8000 NSC 
     BECMG 1918/1920 06007KT 
     PROB30 1921/2004 3000 BR 
     BECMG 2003/2005 14010KT 
     BECMG 2010/2012 35015KT 
     PROB30 
     TEMPO 2010/2014 35017G27KT 3000 BLDU 
     BECMG 2015/2017 07007KT
       
OMFJ 191800Z 20004KT CAVOK 33/21 Q1005 RMK A2970
TAF OMFJ 191700Z 1918/2024 VRB03KT 8000 NSC 
     PROB30 2000/2004 5000 HZ FEW018 
     BECMG 2004/2006 10008KT 
     BECMG 2014/2016 17006KT
       
OMRK 191800Z 00000KT CAVOK 30/19 Q1006 A2972
TAF OMRK 191706Z 1918/2100 VRB02KT 8000 NSC 
     BECMG 2003/2005 11012KT 
     PROB40 2008/2014 35012KT
       
OMSJ 191800Z 30006KT CAVOK 33/20 Q1006
TAF OMSJ 191706Z 1918/2100 05007KT 8000 NSC 
     BECMG 2003/2005 12010KT 
     BECMG 2009/2011 35014KT 
     BECMG 2014/2016 09007KT
       
OMAL 191800Z 35008KT 8000 NSC 35/15 Q1007 NOSIG
TAF OMAL 191100Z 1912/2018 33010KT 8000 FEW050TCU 
     BECMG 1917/1919 04005KT NSC 
     BECMG 2003/2005 13010KT 
     BECMG 2010/2012 03008KT
       
OMAD 191800Z 02007KT 8000 NSC 33/27 Q1005 NOSIG
TAF OMAD 191700Z 1918/2100 36006KT 8000 NSC 
     BECMG 1919/1921 04005KT 4000 HZ 
     PROB40 
     TEMPO 2000/2003 1200 BCFG BKN005 
     BECMG 2004/2006 14005KT 7000 NSW 
     BECMG 2009/2011 32015KT 
     BECMG 2016/2018 05005KT
       
OMDB 191800Z 34006KT 310V030 CAVOK 35/21 Q1006 NOSIG
TAF OMDB 191706Z 1918/2100 05007KT 8000 NSC 
     BECMG 2003/2005 14010KT 
     BECMG 2009/2011 35014KT 
     BECMG 2015/2017 07007KT
       
OMFJ 191800Z 20004KT CAVOK 33/21 Q1005 RMK A2970
TAF OMFJ 191700Z 1918/2024 VRB03KT 8000 NSC 
     PROB30 2000/2004 5000 HZ FEW018 
     BECMG 2004/2006 10008KT 
     BECMG 2014/2016 17006KT
       
OMRK 191800Z 00000KT CAVOK 30/19 Q1006 A2972
TAF OMRK 191706Z 1918/2100 VRB02KT 8000 NSC 
     BECMG 2003/2005 11012KT 
     PROB40 2008/2014 35012KT
       
OMAA 191800Z 01009KT 310V030 8000 NSC 33/27 Q1005 NOSIG
TAF OMAA 191700Z 1918/2100 36010KT 8000 NSC 
     BECMG 1919/1921 04006KT 4000 HZ 
     PROB30 
     TEMPO 2000/2003 1200 BCFG BKN005 
     BECMG 2004/2006 14008KT 7000 NSW 
     BECMG 2009/2011 32016KT 
     BECMG 2016/2018 05005KT
       
OMAD 191800Z 02007KT 8000 NSC 33/27 Q1005 NOSIG
TAF OMAD 191700Z 1918/2100 36006KT 8000 NSC 
     BECMG 1919/1921 04005KT 4000 HZ 
     PROB40 
     TEMPO 2000/2003 1200 BCFG BKN005 
     BECMG 2004/2006 14005KT 7000 NSW 
     BECMG 2009/2011 32015KT 
     BECMG 2016/2018 05005KT
       
OMAL 191800Z 35008KT 8000 NSC 35/15 Q1007 NOSIG
TAF OMAL 191100Z 1912/2018 33010KT 8000 FEW050TCU 
     BECMG 1917/1919 04005KT NSC 
     BECMG 2003/2005 13010KT 
     BECMG 2010/2012 03008KT
       
OMDB 191800Z 34006KT 310V030 CAVOK 35/21 Q1006 NOSIG
TAF OMDB 191706Z 1918/2100 05007KT 8000 NSC 
     BECMG 2003/2005 14010KT 
     BECMG 2009/2011 35014KT 
     BECMG 2015/2017 07007KT
       
OMDW 191800Z 34006KT CAVOK 31/25 Q1007 NOSIG
TAF OMDW 191706Z 1918/2100 36010KT 8000 NSC 
     BECMG 1918/1920 06007KT 
     PROB30 1921/2004 3000 BR 
     BECMG 2003/2005 14010KT 
     BECMG 2010/2012 35015KT 
     PROB30 
     TEMPO 2010/2014 35017G27KT 3000 BLDU 
     BECMG 2015/2017 07007KT
       
OMFJ 191800Z 20004KT CAVOK 33/21 Q1005 RMK A2970
TAF OMFJ 191700Z 1918/2024 VRB03KT 8000 NSC 
     PROB30 2000/2004 5000 HZ FEW018 
     BECMG 2004/2006 10008KT 
     BECMG 2014/2016 17006KT
       
OMRK 191800Z 00000KT CAVOK 30/19 Q1006 A2972
TAF OMRK 191706Z 1918/2100 VRB02KT 8000 NSC 
     BECMG 2003/2005 11012KT 
     PROB40 2008/2014 35012KT
       
OMSJ 191800Z 30006KT CAVOK 33/20 Q1006
TAF OMSJ 191706Z 1918/2100 05007KT 8000 NSC 
     BECMG 2003/2005 12010KT 
     BECMG 2009/2011 35014KT 
     BECMG 2014/2016 09007KT
       
OMSJ 191800Z 30006KT CAVOK 33/20 Q1006
TAF OMSJ 191706Z 1918/2100 05007KT 8000 NSC 
     BECMG 2003/2005 12010KT 
     BECMG 2009/2011 35014KT 
     BECMG 2014/2016 09007KT
       
OMAA 191800Z 01009KT 310V030 8000 NSC 33/27 Q1005 NOSIG
TAF OMAA 191700Z 1918/2100 36010KT 8000 NSC 
     BECMG 1919/1921 04006KT 4000 HZ 
     PROB30 
     TEMPO 2000/2003 1200 BCFG BKN005 
     BECMG 2004/2006 14008KT 7000 NSW 
     BECMG 2009/2011 32016KT 
     BECMG 2016/2018 05005KT
       
OMAD 191800Z 02007KT 8000 NSC 33/27 Q1005 NOSIG
TAF OMAD 191700Z 1918/2100 36006KT 8000 NSC 
     BECMG 1919/1921 04005KT 4000 HZ 
     PROB40 
     TEMPO 2000/2003 1200 BCFG BKN005 
     BECMG 2004/2006 14005KT 7000 NSW 
     BECMG 2009/2011 32015KT 
     BECMG 2016/2018 05005KT
       
OMAL 191800Z 35008KT 8000 NSC 35/15 Q1007 NOSIG
TAF OMAL 191100Z 1912/2018 33010KT 8000 FEW050TCU 
     BECMG 1917/1919 04005KT NSC 
     BECMG 2003/2005 13010KT 
     BECMG 2010/2012 03008KT
       
OMDB 191800Z 34006KT 310V030 CAVOK 35/21 Q1006 NOSIG
TAF OMDB 191706Z 1918/2100 05007KT 8000 NSC 
     BECMG 2003/2005 14010KT 
     BECMG 2009/2011 35014KT 
     BECMG 2015/2017 07007KT
       
OMDW 191800Z 34006KT CAVOK 31/25 Q1007 NOSIG
TAF OMDW 191706Z 1918/2100 36010KT 8000 NSC 
     BECMG 1918/1920 06007KT 
     PROB30 1921/2004 3000 BR 
     BECMG 2003/2005 14010KT 
     BECMG 2010/2012 35015KT 
     PROB30 
     TEMPO 2010/2014 35017G27KT 3000 BLDU 
     BECMG 2015/2017 07007KT
       
OMFJ 191800Z 20004KT CAVOK 33/21 Q1005 RMK A2970
TAF OMFJ 191700Z 1918/2024 VRB03KT 8000 NSC 
     PROB30 2000/2004 5000 HZ FEW018 
     BECMG 2004/2006 10008KT 
     BECMG 2014/2016 17006KT
       
OMRK 191800Z 00000KT CAVOK 30/19 Q1006 A2972
TAF OMRK 191706Z 1918/2100 VRB02KT 8000 NSC 
     BECMG 2003/2005 11012KT 
     PROB40 2008/2014 35012KT
       
OMSJ 191800Z 30006KT CAVOK 33/20 Q1006
TAF OMSJ 191706Z 1918/2100 05007KT 8000 NSC 
     BECMG 2003/2005 12010KT 
     BECMG 2009/2011 35014KT 
     BECMG 2014/2016 09007KT